Time,TemperatureF,DewpointF,PressureIn,WindDirection,WindDirectionDegrees,WindSpeedMPH,WindSpeedGustMPH,Humidity,HourlyPrecipIn,Conditions,Clouds,dailyrainin,SoftwareType,DateUTC
2013-09-14 00:07:00,60.4,58.7,29.91,West,270,0.0,-999.0,94,-99.99,,,0.00,Acu-Link.com,2013-09-14 06:07:00,
2013-09-14 00:22:00,60.6,59.2,29.90,SSE,157,0.0,-999.0,95,-99.99,,,0.00,Acu-Link.com,2013-09-14 06:22:00,
2013-09-14 00:37:00,61.0,59.2,29.90,NW,315,0.0,-999.0,94,-99.99,,,0.00,Acu-Link.com,2013-09-14 06:37:00,
2013-09-14 00:53:00,61.5,59.5,29.90,WNW,292,1.6,-999.0,93,-99.99,,,0.00,Acu-Link.com,2013-09-14 06:53:00,
2013-09-14 01:08:00,62.2,59.6,29.90,North,0,1.6,-999.0,91,-99.99,,,0.00,Acu-Link.com,2013-09-14 07:08:00,
2013-09-14 01:23:00,62.2,59.6,29.90,East,90,2.7,-999.0,91,-99.99,,,0.00,Acu-Link.com,2013-09-14 07:23:00,
2013-09-14 01:38:00,62.1,59.7,29.90,NW,315,1.6,-999.0,92,-99.99,,,0.00,Acu-Link.com,2013-09-14 07:38:00,
2013-09-14 01:54:00,62.2,59.6,29.89,North,0,3.8,-999.0,91,-99.99,,,0.00,Acu-Link.com,2013-09-14 07:54:00,
2013-09-14 02:09:00,62.4,59.8,29.89,NW,315,2.2,-999.0,91,-99.99,,,0.00,Acu-Link.com,2013-09-14 08:09:00,
2013-09-14 02:25:00,62.4,60.1,29.89,West,270,2.7,-999.0,92,-99.99,,,0.00,Acu-Link.com,2013-09-14 08:25:00,
2013-09-14 02:40:00,62.4,61.3,29.90,WNW,292,2.2,-999.0,96,-99.99,,,0.01,Acu-Link.com,2013-09-14 08:40:00,
2013-09-14 02:55:00,61.9,61.3,29.90,NNW,337,2.2,-999.0,98,-99.99,,,0.08,Acu-Link.com,2013-09-14 08:55:00,
2013-09-14 03:10:00,61.5,61.2,29.89,West,270,2.7,-999.0,99,-99.99,,,0.08,Acu-Link.com,2013-09-14 09:10:00,
2013-09-14 03:25:00,61.3,61.1,29.90,WSW,247,0.0,-999.0,99,-99.99,,,0.09,Acu-Link.com,2013-09-14 09:25:00,
2013-09-14 03:41:00,60.8,60.5,29.89,West,270,1.6,-999.0,99,-99.99,,,0.15,Acu-Link.com,2013-09-14 09:41:00,
2013-09-14 03:56:00,60.6,60.3,29.90,West,270,2.2,-999.0,99,-99.99,,,0.21,Acu-Link.com,2013-09-14 09:56:00,
2013-09-14 04:11:00,60.3,60.0,29.88,NE,45,0.0,-999.0,99,-99.99,,,0.43,Acu-Link.com,2013-09-14 10:11:00,
2013-09-14 04:26:00,60.1,59.8,29.87,SW,225,0.0,-999.0,99,-99.99,,,0.44,Acu-Link.com,2013-09-14 10:26:00,
2013-09-14 04:41:00,60.1,59.8,29.88,ESE,112,4.3,-999.0,99,-99.99,,,0.44,Acu-Link.com,2013-09-14 10:41:00,
2013-09-14 04:57:00,60.3,60.0,29.89,WSW,247,0.0,-999.0,99,-99.99,,,0.60,Acu-Link.com,2013-09-14 10:57:00,
2013-09-14 05:12:00,60.1,59.8,29.90,WSW,247,1.6,-999.0,99,-99.99,,,0.80,Acu-Link.com,2013-09-14 11:12:00,
2013-09-14 05:27:00,59.0,58.7,29.90,WSW,247,1.6,-999.0,99,-99.99,,,0.88,Acu-Link.com,2013-09-14 11:27:00,
2013-09-14 05:42:00,58.1,57.8,29.91,SW,225,1.1,-999.0,99,-99.99,,,0.94,Acu-Link.com,2013-09-14 11:42:00,
2013-09-14 05:57:00,57.9,57.6,29.91,NNW,337,0.0,-999.0,99,-99.99,,,1.02,Acu-Link.com,2013-09-14 11:57:00,
2013-09-14 06:13:00,57.7,57.5,29.91,ENE,67,0.0,-999.0,99,-99.99,,,1.02,Acu-Link.com,2013-09-14 12:13:00,
2013-09-14 06:28:00,57.7,57.5,29.90,NE,45,0.0,-999.0,99,-99.99,,,1.02,Acu-Link.com,2013-09-14 12:28:00,
2013-09-14 06:43:00,58.1,57.8,29.91,SW,225,0.0,-999.0,99,-99.99,,,1.02,Acu-Link.com,2013-09-14 12:43:00,
2013-09-14 06:58:00,58.3,58.0,29.91,ESE,112,1.6,-999.0,99,-99.99,,,1.02,Acu-Link.com,2013-09-14 12:58:00,
2013-09-14 07:14:00,58.3,58.0,29.92,West,270,0.0,-999.0,99,-99.99,,,1.03,Acu-Link.com,2013-09-14 13:14:00,
2013-09-14 07:29:00,58.5,58.2,29.92,SW,225,0.0,-999.0,99,-99.99,,,1.03,Acu-Link.com,2013-09-14 13:29:00,
2013-09-14 07:44:00,58.6,58.4,29.93,South,180,0.0,-999.0,99,-99.99,,,1.04,Acu-Link.com,2013-09-14 13:44:00,
2013-09-14 07:59:00,59.4,59.1,29.93,West,270,0.0,-999.0,99,-99.99,,,1.04,Acu-Link.com,2013-09-14 13:59:00,
2013-09-14 08:14:00,59.2,58.9,29.93,West,270,0.0,-999.0,99,-99.99,,,1.04,Acu-Link.com,2013-09-14 14:14:00,
2013-09-14 08:30:00,59.2,58.9,29.93,West,270,0.0,-999.0,99,-99.99,,,1.04,Acu-Link.com,2013-09-14 14:30:00,
2013-09-14 08:45:00,59.4,59.1,29.93,West,270,0.0,-999.0,99,-99.99,,,1.04,Acu-Link.com,2013-09-14 14:45:00,
2013-09-14 09:00:00,59.7,59.4,29.93,SW,225,0.0,-999.0,99,-99.99,,,1.04,Acu-Link.com,2013-09-14 15:00:00,
2013-09-14 09:15:00,60.8,60.5,29.93,SE,135,0.0,-999.0,99,-99.99,,,1.04,Acu-Link.com,2013-09-14 15:15:00,
2013-09-14 09:30:00,61.0,60.7,29.93,WNW,292,1.1,-999.0,99,-99.99,,,1.04,Acu-Link.com,2013-09-14 15:30:00,
2013-09-14 09:46:00,61.7,61.4,29.93,SSE,157,2.7,-999.0,99,-99.99,,,1.04,Acu-Link.com,2013-09-14 15:46:00,
2013-09-14 10:01:00,63.5,62.9,29.94,SSW,202,2.7,-999.0,98,-99.99,,,1.04,Acu-Link.com,2013-09-14 16:01:00,
2013-09-14 10:16:00,64.6,61.9,29.94,SSE,157,4.3,-999.0,91,-99.99,,,1.04,Acu-Link.com,2013-09-14 16:16:00,
2013-09-14 10:31:00,66.7,61.7,29.94,SSE,157,3.8,-999.0,84,-99.99,,,1.04,Acu-Link.com,2013-09-14 16:31:00,
2013-09-14 10:46:00,65.7,61.4,29.94,South,180,1.1,-999.0,86,-99.99,,,1.04,Acu-Link.com,2013-09-14 16:46:00,
2013-09-14 11:02:00,66.6,60.9,29.94,SW,225,4.7,-999.0,82,-99.99,,,1.04,Acu-Link.com,2013-09-14 17:02:00,
2013-09-14 11:17:00,68.0,60.1,29.93,South,180,5.1,-999.0,76,-99.99,,,1.04,Acu-Link.com,2013-09-14 17:17:00,
2013-09-14 11:32:00,68.7,60.1,29.93,WNW,292,1.6,-999.0,74,-99.99,,,1.04,Acu-Link.com,2013-09-14 17:32:00,
2013-09-14 11:47:00,69.1,59.7,29.93,SSE,157,2.7,-999.0,72,-99.99,,,1.04,Acu-Link.com,2013-09-14 17:47:00,
2013-09-14 12:03:00,68.4,60.5,29.92,SW,225,3.8,-999.0,76,-99.99,,,1.04,Acu-Link.com,2013-09-14 18:03:00,
2013-09-14 12:18:00,69.8,59.2,29.92,SSE,157,3.8,-999.0,69,-99.99,,,1.04,Acu-Link.com,2013-09-14 18:18:00,
2013-09-14 12:33:00,70.5,59.8,29.91,ESE,112,0.0,-999.0,69,-99.99,,,1.04,Acu-Link.com,2013-09-14 18:33:00,
2013-09-14 12:48:00,69.8,58.8,29.91,East,90,1.6,-999.0,68,-99.99,,,1.04,Acu-Link.com,2013-09-14 18:48:00,
2013-09-14 13:03:00,70.9,58.9,29.91,SSE,157,5.1,-999.0,66,-99.99,,,1.04,Acu-Link.com,2013-09-14 19:03:00,
2013-09-14 13:19:00,72.9,59.5,29.89,SSW,202,3.8,-999.0,63,-99.99,,,1.04,Acu-Link.com,2013-09-14 19:19:00,
2013-09-14 13:34:00,71.6,59.2,29.89,SSW,202,3.1,-999.0,65,-99.99,,,1.04,Acu-Link.com,2013-09-14 19:34:00,
2013-09-14 13:49:00,72.9,59.1,29.89,SSW,202,2.7,-999.0,62,-99.99,,,1.04,Acu-Link.com,2013-09-14 19:49:00,
2013-09-14 14:04:00,72.3,56.7,29.88,SSW,202,4.3,-999.0,58,-99.99,,,1.04,Acu-Link.com,2013-09-14 20:04:00,
2013-09-14 14:19:00,73.4,57.2,29.86,SSE,157,2.7,-999.0,57,-99.99,,,1.04,Acu-Link.com,2013-09-14 20:19:00,
2013-09-14 14:35:00,74.1,57.9,29.86,WNW,292,2.2,-999.0,57,-99.99,,,1.04,Acu-Link.com,2013-09-14 20:35:00,
2013-09-14 14:50:00,73.8,58.0,29.85,South,180,1.1,-999.0,58,-99.99,,,1.04,Acu-Link.com,2013-09-14 20:50:00,
2013-09-14 15:05:00,74.7,57.9,29.84,South,180,5.8,-999.0,56,-99.99,,,1.04,Acu-Link.com,2013-09-14 21:05:00,
2013-09-14 15:20:00,74.7,58.9,29.84,West,270,1.6,-999.0,58,-99.99,,,1.04,Acu-Link.com,2013-09-14 21:20:00,
2013-09-14 15:35:00,75.6,58.7,29.83,SSE,157,4.3,-999.0,56,-99.99,,,1.04,Acu-Link.com,2013-09-14 21:35:00,
2013-09-14 15:51:00,74.8,58.1,29.84,SSE,157,5.8,-999.0,56,-99.99,,,1.04,Acu-Link.com,2013-09-14 21:51:00,
2013-09-14 16:06:00,74.5,57.7,29.83,ESE,112,4.3,-999.0,56,-99.99,,,1.04,Acu-Link.com,2013-09-14 22:06:00,
2013-09-14 16:21:00,74.3,59.5,29.84,West,270,1.1,-999.0,60,-99.99,,,1.04,Acu-Link.com,2013-09-14 22:21:00,
2013-09-14 16:36:00,74.5,58.7,29.83,SE,135,3.8,-999.0,58,-99.99,,,1.04,Acu-Link.com,2013-09-14 22:36:00,
2013-09-14 16:52:00,73.6,58.4,29.84,South,180,0.0,-999.0,59,-99.99,,,1.04,Acu-Link.com,2013-09-14 22:52:00,
2013-09-14 17:07:00,72.3,58.6,29.84,South,180,0.0,-999.0,62,-99.99,,,1.04,Acu-Link.com,2013-09-14 23:07:00,
2013-09-14 17:22:00,72.1,59.3,29.84,SSW,202,2.2,-999.0,64,-99.99,,,1.04,Acu-Link.com,2013-09-14 23:22:00,
2013-09-14 17:37:00,72.0,59.1,29.84,SSE,157,0.0,-999.0,64,-99.99,,,1.04,Acu-Link.com,2013-09-14 23:37:00,
2013-09-14 17:52:00,72.0,58.2,29.83,West,270,1.1,-999.0,62,-99.99,,,1.04,Acu-Link.com,2013-09-14 23:52:00,
2013-09-14 18:08:00,71.6,58.3,29.83,West,270,3.8,-999.0,63,-99.99,,,1.04,Acu-Link.com,2013-09-15 00:08:00,
2013-09-14 18:23:00,71.8,59.4,29.84,WSW,247,3.8,-999.0,65,-99.99,,,1.04,Acu-Link.com,2013-09-15 00:23:00,
2013-09-14 18:38:00,71.6,60.0,29.84,West,270,3.8,-999.0,67,-99.99,,,1.04,Acu-Link.com,2013-09-15 00:38:00,
2013-09-14 18:53:00,71.1,60.4,29.84,WNW,292,1.6,-999.0,69,-99.99,,,1.04,Acu-Link.com,2013-09-15 00:53:00,
2013-09-14 19:08:00,70.0,60.1,29.83,SSW,202,0.0,-999.0,71,-99.99,,,1.04,Acu-Link.com,2013-09-15 01:08:00,
2013-09-14 19:24:00,68.7,59.7,29.83,SW,225,0.0,-999.0,73,-99.99,,,1.04,Acu-Link.com,2013-09-15 01:24:00,
2013-09-14 19:39:00,67.6,60.5,29.84,WNW,292,2.2,-999.0,78,-99.99,,,1.04,Acu-Link.com,2013-09-15 01:39:00,
2013-09-14 19:54:00,67.6,61.2,29.85,WNW,292,2.7,-999.0,80,-99.99,,,1.04,Acu-Link.com,2013-09-15 01:54:00,
2013-09-14 20:09:00,67.1,61.4,29.86,West,270,1.6,-999.0,82,-99.99,,,1.04,Acu-Link.com,2013-09-15 02:09:00,
2013-09-14 20:24:00,66.6,61.2,29.86,NW,315,2.7,-999.0,83,-99.99,,,1.04,Acu-Link.com,2013-09-15 02:24:00,
2013-09-14 20:40:00,66.0,61.0,29.86,NW,315,3.1,-999.0,84,-99.99,,,1.04,Acu-Link.com,2013-09-15 02:40:00,
2013-09-14 20:55:00,65.7,60.0,29.86,West,270,1.6,-999.0,82,-99.99,,,1.04,Acu-Link.com,2013-09-15 02:55:00,
2013-09-14 21:10:00,65.5,60.5,29.87,ENE,67,3.8,-999.0,84,-99.99,,,1.04,Acu-Link.com,2013-09-15 03:10:00,
2013-09-14 21:25:00,65.1,60.8,29.88,NNE,22,1.6,-999.0,86,-99.99,,,1.04,Acu-Link.com,2013-09-15 03:25:00,
2013-09-14 21:41:00,65.1,60.8,29.88,NNW,337,2.7,-999.0,86,-99.99,,,1.04,Acu-Link.com,2013-09-15 03:41:00,
2013-09-14 21:56:00,65.5,60.2,29.88,NNW,337,4.3,-999.0,83,-99.99,,,1.04,Acu-Link.com,2013-09-15 03:56:00,
2013-09-14 22:11:00,65.8,60.2,29.88,SW,225,1.1,-999.0,82,-99.99,,,1.04,Acu-Link.com,2013-09-15 04:11:00,
2013-09-14 22:26:00,64.4,61.1,29.87,West,270,2.7,-999.0,89,-99.99,,,1.14,Acu-Link.com,2013-09-15 04:26:00,
2013-09-14 22:41:00,63.7,61.6,29.88,East,90,0.0,-999.0,93,-99.99,,,1.14,Acu-Link.com,2013-09-15 04:41:00,
2013-09-14 22:57:00,61.0,58.6,29.90,SSE,157,5.1,-999.0,92,-99.99,,,1.14,Acu-Link.com,2013-09-15 04:57:00,
2013-09-14 23:12:00,59.0,57.9,29.90,East,90,5.1,-999.0,96,-99.99,,,1.15,Acu-Link.com,2013-09-15 05:12:00,
2013-09-14 23:27:00,59.4,58.5,29.91,North,0,10.3,-999.0,97,-99.99,,,1.15,Acu-Link.com,2013-09-15 05:27:00,
2013-09-14 23:42:00,58.6,58.4,29.92,NE,45,4.3,-999.0,99,-99.99,,,1.18,Acu-Link.com,2013-09-15 05:42:00,
2013-09-14 23:57:00,57.6,57.3,29.93,NNE,22,6.7,-999.0,99,-99.99,,,1.24,Acu-Link.com,2013-09-15 05:57:00,